[[{"header":{"parameterUnit":"m.s-1","parameterCategory":2,"la1":30.2991,"la2":30.254,"lo1":-89.0895,"lo2":-89.0444,"dy":0.0017,"dx":0.0017,"nx":28,"ny":28,"refTime":"2023-08-05T21:00:00:Z","depth":"0","parameterNumber":2,"parameterNumberName":"U-component_of_CURRENTS"},"data":[0,0,0,0,0,0,0,0,0,0,0,0,0,0,0,0,0,0,0,0,0,0,0,0,0,0,0,0,0,0,0,0,0,0,0,0,0,0,0,0,0,0,0,0,0,0,0,0,0,0,0,0,0,0,0,0,0,0,0.3053,0.3053,0,0.3088,0.3088,0.3088,0.303,0.3028,0.3026,0.3025,0.3002,0.3002,0.3003,0,0,0,0,0,0,0,0,0,0,0,0,0,0.3078,0.3077,0.3052,0.3053,0.3054,0.3088,0.3088,0.3088,0.303,0.3028,0.3026,0.3024,0.3001,0.3002,0.3004,0,0,0,0,0,0,0,0,0,0,0,0,0,0.3083,0.3077,0.3052,0.3031,0.303,0.3088,0.3088,0.3088,0.3031,0.3028,0.3025,0.3023,0.3001,0.3002,0.3004,0.3066,0,0,0.3008,0.3009,0,0,0,0,0,0,0,0,0.3083,0.3082,0.3033,0.3033,0.3031,0.3054,0.3089,0.3079,0.3031,0.3028,0.3025,0.3022,0.3017,0.3017,0.3027,0.3065,0.3064,0.3009,0.3009,0.301,0.3011,0,0,0,0,0,0,0,0.3082,0.3081,0.3064,0.3034,0.3033,0.3069,0.3065,0.3087,0.3034,0.3028,0.3024,0.3033,0.3015,0.3026,0.3026,0.3063,0.3008,0.301,0.3011,0.3011,0.3192,0.3196,0,0,0,0,0,0,0.3078,0.308,0.3063,0.3065,0.3054,0.307,0.3066,0.3047,0.3035,0.3031,0.3035,0.303,0.3024,0.3024,0.3025,0.3117,0.301,0.3012,0.3012,0.3188,0.3193,0.3197,0,0,0,0,0,0,0.3078,0.3075,0.3061,0.3077,0.3078,0.3072,0.3052,0.3049,0.3064,0.3041,0.3036,0.3053,0.3022,0.3023,0.3073,0.3114,0.3012,0.3014,0.3184,0.319,0.3195,0.3288,0,0,0,0,0,0,0.3078,0.3074,0.3077,0.3076,0.3077,0.3105,0.3055,0.3052,0.3075,0.3068,0.3056,0.305,0.302,0.3072,0.3075,0.3114,0.3015,0.3179,0.3186,0.3193,0.328,0.3296,0.331,0,0,0,0,0,0.3079,0.3085,0.3076,0.3076,0.3074,0.3107,0.3112,0.3098,0.3078,0.3099,0.3103,0.3051,0.3119,0.3077,0.3079,0.312,0.3175,0.3184,0.3193,0.3273,0.3293,0.331,0,0,0,0,0,0,0.3106,0.3081,0.307,0.307,0.3094,0.3098,0.3115,0.3118,0.314,0.313,0.3104,0.3102,0.3157,0.3147,0.31,0.32,0.3139,0.3148,0.3199,0.3218,0.3232,0.3249,0.3016,0,0,0,0,0,0.3114,0.3103,0.3105,0.3113,0.3118,0.3126,0.3143,0.3139,0.3153,0.3158,0.3157,0.3168,0.32,0.3213,0.3229,0.3293,0.3316,0.3325,0.334,0.3352,0.3374,0.3456,0.348,0.3226,0.3226,0.3226,0,0,0.3129,0.3117,0.3112,0.3119,0.3125,0.3155,0.3127,0.3155,0.3196,0.3156,0.3209,0.3219,0.3232,0.3292,0.3317,0.3285,0.3444,0.3364,0.3374,0.3388,0.3468,0.3492,0.3514,0.3232,0.3231,0.323,0,0,0.3156,0.3138,0.3139,0.3157,0.3176,0.3191,0.3206,0.3225,0.3242,0.3307,0.3293,0.3348,0.3377,0.341,0.3427,0.3551,0.352,0.3543,0.3631,0.3711,0.3732,0.3751,0.3832,0.3857,0.3551,0.3552,0.3552,0,0.3192,0.3167,0.3157,0.3172,0.3194,0.321,0.3241,0.328,0.3324,0.3359,0.333,0.3431,0.3442,0.3541,0.3585,0.3583,0.3618,0.355,0.3729,0.3747,0.3765,0.3843,0.3869,0.3557,0.3557,0.3556,0.3556,0,0.3208,0.3204,0.3211,0.3225,0.3263,0.3289,0.3336,0.3384,0.3409,0.3448,0.3543,0.3578,0.3637,0.3657,0.3659,0.3795,0.3777,0.3732,0.3673,0.3795,0.3871,0.3897,0.3565,0.3563,0.3562,0.356,0,0,0.3255,0.3226,0.3232,0.3225,0.3284,0.3305,0.3399,0.3479,0.3535,0.3598,0.368,0.3775,0.3794,0.3821,0.3836,0.3917,0.4085,0.3887,0.3888,0.3952,0.4271,0.4227,0.425,0.4058,0.4063,0.4067,0.428,0,0.3277,0.3271,0.3283,0.3317,0.3313,0.337,0.3451,0.3536,0.361,0.3698,0.3776,0.385,0.3857,0.3885,0.3983,0.405,0.4154,0.4032,0.4157,0.4161,0.4094,0.4279,0.4066,0.4235,0.4305,0.4309,0.4312,0,0.3293,0.3275,0.3281,0.3307,0.3319,0.3364,0.3475,0.355,0.3699,0.3753,0.3867,0.3926,0.4088,0.4045,0.4269,0.4186,0.4259,0.4305,0.4313,0.4257,0.4166,0.4123,0.4278,0.4122,0.4351,0.4348,0.4345,0,0.3274,0.3286,0.3273,0.328,0.3325,0.3361,0.3417,0.3559,0.3624,0.379,0.3851,0.4037,0.4112,0.4255,0.4392,0.4341,0.461,0.4538,0.4577,0.4573,0.4412,0.4387,0.4415,0.471,0.4709,0.4709,0.4708,0,0.328,0.3278,0.3243,0.3229,0.3247,0.3309,0.3378,0.347,0.3605,0.3693,0.3862,0.3967,0.4166,0.4339,0.4451,0.4618,0.4671,0.4651,0.4647,0.4441,0.4417,0.4285,0.4193,0.4717,0.4715,0.4714,0.4712,0,0.3269,0.3247,0.3212,0.3213,0.322,0.3229,0.3312,0.3369,0.3507,0.363,0.3685,0.3941,0.4166,0.4367,0.4606,0.4674,0.4703,0.487,0.4624,0.4589,0.4448,0.4369,0.4334,0.423,0.4964,0.4965,0.4965,0,0.3249,0.322,0.3166,0.3132,0.3126,0.3142,0.3169,0.3298,0.3367,0.3609,0.3668,0.3931,0.4105,0.4463,0.4653,0.488,0.47,0.4779,0.465,0.447,0.438,0.4226,0.4128,0.4486,0.4483,0.448,0.4477,0,0.3199,0.3172,0.3125,0.3047,0.303,0.3042,0.3092,0.3124,0.3294,0.342,0.362,0.378,0.4137,0.4295,0.4584,0.4689,0.4514,0.4726,0.4597,0.4086,0.3862,0.3745,0.4322,0.4452,0.4454,0.4456,0.4458,0.4459,0.3129,0.3083,0.2994,0.2931,0.2918,0.2922,0.2912,0.3001,0.3094,0.3248,0.3483,0.3638,0.3892,0.4285,0.4374,0.4359,0.4393,0.4236,0.4187,0.4076,0.3867,0.4407,0.4483,0.4486,0.4488,0.449,0.4492,0,0.2992,0.2954,0.2888,0.2795,0.2754,0.28,0.2839,0.283,0.2891,0.306,0.3227,0.3414,0.3564,0.3739,0.3897,0.3825,0.3701,0.3716,0.3416,0.3374,0.3907,0.3773,0.3625,0.3625,0.3625,0.3625,0.3625,0.3625,0.2889,0.2787,0.2755,0.2626,0.2595,0.2542,0.2543,0.2571,0.2645,0.2719,0.2786,0.2946,0.3206,0.3379,0.334,0.3286,0.3056,0.2953,0.2998,0.3305,0.3347,0.3387,0.3241,0.2984,0.2983,0.232,0.2315,0.231]},{"header":{"parameterUnit":"m.s-1","parameterCategory":2,"la1":30.2991,"la2":30.254,"lo1":-89.0895,"lo2":-89.0444,"dy":0.0017,"dx":0.0017,"nx":28,"ny":28,"refTime":"2023-08-05T21:00:00:Z","depth":"0","parameterNumber":3,"parameterNumberName":"V-component_of_CURRENTS"},"data":[0,0,0,0,0,0,0,0,0,0,0,0,0,0,0,0,0,0,0,0,0,0,0,0,0,0,0,0,0,0,0,0,0,0,0,0,0,0,0,0,0,0,0,0,0,0,0,0,0,0,0,0,0,0,0,0,0,0,0.0148,0.0148,0,0.0124,0.0124,0.0123,0.0071,0.007,0.0069,0.0068,0.0006,0.0005,0.0004,0,0,0,0,0,0,0,0,0,0,0,0,0,0.0109,0.011,0.0148,0.0148,0.0148,0.0124,0.0124,0.0123,0.0071,0.007,0.0069,0.0068,0.0006,0.0005,0.0004,0,0,0,0,0,0,0,0,0,0,0,0,0,0.0107,0.011,0.0148,0.0121,0.0118,0.0124,0.0124,0.0123,0.0071,0.007,0.0069,0.0068,0.0006,0.0005,0.0004,0.002,0,0,-0.0,-0.0001,0,0,0,0,0,0,0,0,0.0107,0.0108,0.0125,0.0123,0.012,0.0101,0.0087,0.0088,0.0072,0.0086,0.0068,0.0067,0.0037,0.0033,0.0028,0.0018,0.0015,-0.0001,-0.0001,-0.0002,-0.0002,0,0,0,0,0,0,0,0.0108,0.0109,0.0136,0.0125,0.0122,0.0096,0.0095,0.0086,0.0066,0.0085,0.0082,0.0084,0.0034,0.0029,0.0026,0.0014,-0.0001,-0.0002,-0.0003,-0.0003,-0.0008,-0.0008,0,0,0,0,0,0,0.0119,0.011,0.0137,0.0136,0.0113,0.0099,0.0097,0.0107,0.0067,0.0061,0.0085,0.0081,0.0032,0.0028,0.0024,0.0046,-0.0002,-0.0003,-0.0004,-0.0009,-0.0008,-0.0007,0,0,0,0,0,0,0.0119,0.0122,0.0138,0.0123,0.0123,0.0101,0.0112,0.0107,0.0098,0.0068,0.006,0.0081,0.0031,0.0026,0.001,0.0043,-0.0004,-0.0005,-0.001,-0.0009,-0.0008,0.0087,0,0,0,0,0,0,0.0118,0.0123,0.013,0.0124,0.0125,0.0162,0.0114,0.0107,0.0102,0.0097,0.0063,0.0055,0.003,0.0012,0.0009,0.004,-0.0006,-0.0011,-0.0009,-0.0008,0.0083,0.0092,0.0098,0,0,0,0,0,0.0117,0.014,0.0131,0.0133,0.0137,0.0164,0.0162,0.0139,0.0104,0.0121,0.0076,0.0056,0.0018,0.0012,0.0007,0.0039,-0.0011,-0.001,-0.0008,0.008,0.009,0.0098,0,0,0,0,0,0,0.0106,0.0137,0.0126,0.015,0.0164,0.0156,0.0169,0.0144,0.0123,0.0112,0.0063,0.0055,0.0052,0.003,0.0024,0.0039,0.0001,0.0002,0.007,0.0079,0.0086,0.012,-0.0007,0,0,0,0,0,0.0114,0.0147,0.0161,0.0177,0.0195,0.018,0.0182,0.0172,0.0155,0.0143,0.0114,0.008,0.0058,0.0054,0.0033,0.0047,0.0022,0.0063,0.007,0.0077,0.01,0.0073,0.0081,-0.0003,-0.0003,-0.0003,0,0,0.011,0.0131,0.0145,0.0179,0.0187,0.0218,0.0179,0.0201,0.0209,0.0141,0.0139,0.0104,0.0063,0.0071,0.007,0.0058,0.0088,0.0079,0.0085,0.0105,0.0076,0.0084,0.0091,-0.0002,-0.0002,-0.0002,0,0,0.0131,0.0149,0.0189,0.0216,0.0247,0.0248,0.0257,0.0262,0.0252,0.0251,0.0196,0.0185,0.0153,0.014,0.0123,0.0162,0.0121,0.015,0.0228,0.0202,0.0209,0.0215,0.0199,0.0203,0.0163,0.0163,0.0163,0,0.0116,0.017,0.02,0.0247,0.0268,0.0265,0.0303,0.0304,0.0292,0.0293,0.0265,0.0224,0.0192,0.0199,0.0211,0.0185,0.0158,0.0199,0.0214,0.0219,0.0223,0.0205,0.0208,0.0168,0.0168,0.0167,0.0167,0,0.0176,0.0213,0.0244,0.0304,0.0334,0.0372,0.0391,0.0406,0.0388,0.0381,0.0384,0.0342,0.0324,0.0311,0.0274,0.0296,0.0263,0.022,0.0196,0.0238,0.0215,0.0217,0.0175,0.0173,0.0172,0.0171,0,0,0.0163,0.0262,0.0273,0.0307,0.0369,0.04,0.0438,0.0473,0.0494,0.0485,0.051,0.0479,0.0463,0.0444,0.0402,0.0389,0.0397,0.0329,0.0326,0.0324,0.0343,0.0309,0.0306,0.0348,0.0348,0.0349,0.0317,0,0.0193,0.0279,0.0324,0.0396,0.0446,0.0473,0.0511,0.0542,0.0552,0.0581,0.0561,0.0563,0.0511,0.0507,0.0491,0.0421,0.0404,0.041,0.0294,0.0292,0.0264,0.0308,0.0322,0.0293,0.0318,0.0318,0.0318,0,0.0246,0.0297,0.0371,0.0453,0.0479,0.0515,0.0585,0.062,0.0666,0.0675,0.0693,0.0673,0.0679,0.0612,0.0545,0.0547,0.0462,0.0401,0.0396,0.0337,0.026,0.0253,0.0294,0.0123,0.0319,0.0319,0.0319,0,0.0239,0.0334,0.0388,0.0419,0.0509,0.0542,0.0584,0.0644,0.0691,0.074,0.0779,0.077,0.0773,0.0685,0.0575,0.0557,0.0483,0.0434,0.0323,0.0319,0.0298,0.0291,0.0173,0.0373,0.0373,0.0373,0.0373,0,0.0262,0.0305,0.0388,0.0422,0.0496,0.0555,0.0632,0.0674,0.0752,0.0834,0.0828,0.0885,0.0788,0.0738,0.0618,0.0491,0.0512,0.0358,0.0316,0.033,0.0327,0.0148,0.0074,0.0372,0.0372,0.0372,0.0373,0,0.0239,0.0295,0.037,0.0464,0.0498,0.0551,0.0666,0.0732,0.0794,0.0903,0.0928,0.0972,0.0924,0.08,0.0664,0.0549,0.0339,0.0349,0.0382,0.0344,0.0096,0.0028,-0.0094,-0.0133,0.0253,0.0252,0.0252,0,0.0235,0.0271,0.0387,0.0452,0.0494,0.0582,0.0658,0.0742,0.0827,0.0966,0.1031,0.1029,0.1073,0.0874,0.0647,0.0441,0.0296,0.0298,0.0268,0.0103,-0.0005,-0.0053,-0.008,0.0277,0.0277,0.0276,0.0276,0,0.0228,0.0267,0.0331,0.0464,0.0556,0.0665,0.0777,0.0853,0.098,0.1091,0.1245,0.1296,0.1118,0.0949,0.0638,0.0486,0.0213,0.0282,0.0103,0.0011,-0.0039,-0.0104,0.0276,0.0272,0.0272,0.0273,0.0273,0.0273,0.0224,0.0275,0.0381,0.0501,0.0615,0.0769,0.0877,0.1014,0.1184,0.1398,0.1412,0.1536,0.123,0.0838,0.0581,0.0121,0.0152,0.0001,-0.0063,-0.0096,-0.0143,0.0234,0.0179,0.0178,0.0178,0.0178,0.0178,0,0.0255,0.0324,0.0428,0.0599,0.073,0.0791,0.0984,0.1121,0.1347,0.1529,0.1683,0.1621,0.1231,0.08,0.0173,-0.0161,-0.025,-0.0335,-0.0405,-0.041,-0.0088,-0.0101,-0.0208,-0.0208,-0.0208,-0.0208,-0.0208,-0.0208,0.0285,0.0386,0.0446,0.0675,0.0801,0.1002,0.113,0.1341,0.1508,0.1781,0.1883,0.1925,0.1608,0.0439,-0.0327,-0.049,-0.0702,-0.0757,-0.0851,-0.0661,-0.0635,-0.0611,-0.0643,-0.0863,-0.0863,-0.1125,-0.1128,-0.113]}],[{"header":{"parameterUnit":"m.s-1","parameterCategory":2,"la1":30.2991,"la2":30.254,"lo1":-89.0895,"lo2":-89.0444,"dy":0.0017,"dx":0.0017,"nx":28,"ny":28,"refTime":"2023-08-05T21:00:00:Z","depth":"2","parameterNumber":2,"parameterNumberName":"U-component_of_CURRENTS"},"data":[0,0,0,0,0,0,0,0,0,0,0,0,0,0,0,0,0,0,0,0,0,0,0,0,0,0,0,0,0,0,0,0,0,0,0,0,0,0,0,0,0,0,0,0,0,0,0,0,0,0,0,0,0,0,0,0,0,0,0.1019,0.1021,0,0.1353,0.1359,0.1364,0.1702,0.1705,0.1708,0.1711,0.1819,0.1819,0.1819,0,0,0,0,0,0,0,0,0,0,0,0,0,0.065,0.0657,0.1018,0.1021,0.1023,0.1353,0.1359,0.1365,0.1702,0.1705,0.1709,0.1712,0.1819,0.1819,0.1819,0,0,0,0,0,0,0,0,0,0,0,0,0,0.0897,0.0659,0.1018,0.1218,0.1238,0.1351,0.1359,0.1367,0.1701,0.1705,0.171,0.1714,0.1819,0.1819,0.182,0.1734,0,0,0.182,0.182,0,0,0,0,0,0,0,0,0.0882,0.0912,0.1186,0.1204,0.1227,0.1475,0.1268,0.1472,0.17,0.1544,0.1711,0.1716,0.1668,0.1681,0.1763,0.1739,0.1743,0.182,0.182,0.1821,0.1821,0,0,0,0,0,0,0,0.0865,0.0899,0.1169,0.1188,0.1213,0.1282,0.1325,0.1311,0.1587,0.1558,0.1579,0.1586,0.1681,0.1762,0.1767,0.1745,0.182,0.1821,0.1821,0.1821,0.2018,0.2023,0,0,0,0,0,0,0.0785,0.0883,0.1158,0.1177,0.1042,0.1284,0.1332,0.1405,0.1593,0.1622,0.1582,0.16,0.176,0.1766,0.1771,0.1908,0.1821,0.1821,0.1821,0.2013,0.2019,0.2024,0,0,0,0,0,0,0.0777,0.0809,0.1145,0.1019,0.1065,0.1284,0.1365,0.1409,0.1582,0.161,0.1641,0.1716,0.1764,0.1771,0.1885,0.1905,0.1821,0.1821,0.2007,0.2015,0.2022,0.2032,0,0,0,0,0,0,0.0766,0.0806,0.0873,0.1016,0.1069,0.1233,0.136,0.1412,0.1565,0.1596,0.1731,0.1743,0.1768,0.1886,0.1886,0.1904,0.1821,0.2,0.201,0.2019,0.2025,0.2039,0.205,0,0,0,0,0,0.0753,0.0841,0.0876,0.0909,0.1143,0.1231,0.1268,0.1447,0.1567,0.1628,0.1781,0.1744,0.1947,0.189,0.1888,0.1907,0.1996,0.2008,0.2019,0.2019,0.2036,0.205,0,0,0,0,0,0,0.0733,0.0884,0.0927,0.1063,0.1129,0.1283,0.1366,0.1479,0.1659,0.1709,0.1792,0.1812,0.1927,0.1932,0.1868,0.2009,0.1968,0.198,0.197,0.1985,0.1998,0.1918,0.1822,0,0,0,0,0,0.0736,0.084,0.0943,0.1037,0.1077,0.1228,0.1307,0.1406,0.1547,0.1643,0.1735,0.1852,0.1956,0.1988,0.2057,0.2096,0.2087,0.2124,0.2136,0.2146,0.2093,0.2149,0.2158,0.2062,0.2062,0.2062,0,0,0.0812,0.0835,0.0948,0.1034,0.112,0.1177,0.1298,0.1405,0.1464,0.1601,0.1753,0.1887,0.199,0.2086,0.2131,0.2093,0.2184,0.2161,0.2167,0.2108,0.2161,0.2169,0.2176,0.207,0.2068,0.2067,0,0,0.0896,0.0965,0.108,0.1091,0.1141,0.1185,0.122,0.1379,0.1475,0.1587,0.1756,0.192,0.202,0.2134,0.2196,0.2309,0.2264,0.2347,0.231,0.2367,0.2372,0.2376,0.2409,0.2416,0.2333,0.2333,0.2333,0,0.096,0.1059,0.1116,0.1127,0.1133,0.1188,0.1249,0.1317,0.1496,0.1569,0.162,0.1937,0.2031,0.2195,0.2275,0.2322,0.2343,0.223,0.2372,0.2376,0.238,0.2412,0.2419,0.2335,0.2335,0.2335,0.2334,0,0.1069,0.1146,0.1174,0.1199,0.1213,0.1243,0.127,0.1338,0.1427,0.1515,0.1703,0.1875,0.2074,0.2146,0.2239,0.2359,0.2365,0.2389,0.2302,0.2388,0.242,0.2427,0.2338,0.2337,0.2336,0.2336,0,0,0.1219,0.1271,0.1292,0.1293,0.1231,0.1266,0.1276,0.1338,0.1424,0.1534,0.1675,0.189,0.2023,0.2108,0.2267,0.231,0.2406,0.2358,0.236,0.2333,0.2516,0.2383,0.2378,0.2453,0.2454,0.2455,0.2535,0,0.1281,0.1361,0.1337,0.1381,0.1407,0.1359,0.1369,0.141,0.1465,0.1592,0.1725,0.1922,0.1988,0.2155,0.22,0.24,0.2421,0.238,0.2483,0.2485,0.2309,0.238,0.2256,0.2304,0.2542,0.2543,0.2544,0,0.1381,0.1375,0.1473,0.1458,0.1476,0.15,0.1505,0.1522,0.1612,0.1682,0.1817,0.1938,0.2113,0.2137,0.2334,0.2312,0.2393,0.2468,0.2474,0.2326,0.2362,0.226,0.2308,0.2555,0.2554,0.2553,0.2552,0,0.1438,0.1479,0.1545,0.1524,0.1509,0.1559,0.1573,0.1614,0.1655,0.1781,0.1883,0.2012,0.2207,0.2245,0.2424,0.2398,0.2582,0.2574,0.2491,0.2484,0.2377,0.2357,0.2623,0.2623,0.2623,0.2622,0.2622,0,0.1463,0.1513,0.1608,0.1625,0.1662,0.1652,0.1722,0.1756,0.1845,0.1955,0.1992,0.2141,0.2248,0.2375,0.242,0.2487,0.2586,0.2458,0.2486,0.2386,0.2366,0.2573,0.2566,0.2626,0.2625,0.2624,0.2624,0,0.1519,0.1578,0.1604,0.1664,0.1699,0.1727,0.1805,0.1879,0.1961,0.2111,0.2176,0.2311,0.2471,0.2514,0.2659,0.2555,0.2588,0.2581,0.2436,0.2439,0.2433,0.2427,0.2432,0.2428,0.2425,0.2422,0.2419,0,0.1537,0.158,0.1672,0.1692,0.173,0.1794,0.1862,0.1931,0.2018,0.2236,0.2345,0.2532,0.2614,0.2679,0.2569,0.2504,0.2628,0.2329,0.2206,0.2381,0.241,0.2409,0.2409,0.2114,0.2109,0.2105,0.2102,0,0.1475,0.1556,0.1626,0.1752,0.1821,0.1821,0.197,0.2031,0.2161,0.2304,0.2513,0.258,0.2639,0.2489,0.2368,0.2315,0.2293,0.2236,0.2526,0.2145,0.2077,0.2105,0.2117,0.2067,0.207,0.2073,0.2075,0.2076,0.1438,0.1496,0.1683,0.1758,0.1837,0.1873,0.1899,0.2048,0.2148,0.2309,0.2419,0.2437,0.2346,0.2041,0.1992,0.1973,0.2053,0.1955,0.197,0.1989,0.1901,0.1826,0.1753,0.1755,0.1756,0.1758,0.1759,0,0.1378,0.1543,0.1671,0.1779,0.1872,0.1909,0.1985,0.196,0.2069,0.2199,0.224,0.1898,0.1746,0.1803,0.168,0.1549,0.1564,0.1551,0.1604,0.1638,0.1669,0.1568,0.1331,0.133,0.1329,0.1328,0,0,0.1355,0.1517,0.1628,0.1764,0.1869,0.1917,0.1912,0.1877,0.1895,0.1846,0.1842,0.165,0.1716,0.1441,0.1384,0.142,0.154,0.1382,0.1729,0.1833,0.1863,0.1901,0.1782,0,0,0,0,0]},{"header":{"parameterUnit":"m.s-1","parameterCategory":2,"la1":30.2991,"la2":30.254,"lo1":-89.0895,"lo2":-89.0444,"dy":0.0017,"dx":0.0017,"nx":28,"ny":28,"refTime":"2023-08-05T21:00:00:Z","depth":"2","parameterNumber":3,"parameterNumberName":"V-component_of_CURRENTS"},"data":[0,0,0,0,0,0,0,0,0,0,0,0,0,0,0,0,0,0,0,0,0,0,0,0,0,0,0,0,0,0,0,0,0,0,0,0,0,0,0,0,0,0,0,0,0,0,0,0,0,0,0,0,0,0,0,0,0,0,-0.0126,-0.0127,0,-0.0211,-0.0212,-0.0213,-0.027,-0.027,-0.027,-0.0271,-0.0322,-0.0323,-0.0324,0,0,0,0,0,0,0,0,0,0,0,0,0,-0.0077,-0.0077,-0.0126,-0.0127,-0.0128,-0.0211,-0.0212,-0.0214,-0.027,-0.027,-0.0271,-0.0271,-0.0322,-0.0323,-0.0324,0,0,0,0,0,0,0,0,0,0,0,0,0,-0.0124,-0.0077,-0.0126,-0.0166,-0.017,-0.0211,-0.0212,-0.0214,-0.027,-0.027,-0.0271,-0.0271,-0.0321,-0.0323,-0.0324,-0.0323,0,0,-0.0329,-0.033,0,0,0,0,0,0,0,0,-0.0121,-0.0125,-0.0159,-0.0163,-0.0168,-0.023,-0.0214,-0.0249,-0.0269,-0.0232,-0.0271,-0.0271,-0.0287,-0.0292,-0.0308,-0.0326,-0.0328,-0.0329,-0.033,-0.0331,-0.0331,0,0,0,0,0,0,0,-0.0117,-0.0123,-0.016,-0.016,-0.0166,-0.0202,-0.0208,-0.0221,-0.0255,-0.0236,-0.024,-0.0248,-0.029,-0.0306,-0.0309,-0.0329,-0.0329,-0.033,-0.0331,-0.0332,-0.0373,-0.0374,0,0,0,0,0,0,-0.0102,-0.0119,-0.0158,-0.0163,-0.0145,-0.0202,-0.0209,-0.021,-0.0256,-0.0264,-0.0248,-0.0251,-0.0303,-0.0307,-0.0311,-0.0295,-0.0331,-0.0332,-0.0333,-0.0373,-0.0374,-0.0374,0,0,0,0,0,0,-0.0101,-0.0104,-0.0154,-0.0143,-0.0152,-0.0202,-0.0202,-0.0211,-0.0228,-0.0266,-0.0273,-0.0255,-0.0304,-0.0309,-0.0332,-0.0298,-0.0333,-0.0334,-0.0373,-0.0373,-0.0374,-0.0274,0,0,0,0,0,0,-0.0099,-0.0103,-0.0107,-0.0142,-0.0152,-0.0149,-0.0202,-0.0213,-0.0232,-0.0237,-0.0274,-0.028,-0.0305,-0.033,-0.0333,-0.0301,-0.0335,-0.0373,-0.0373,-0.0374,-0.0277,-0.027,-0.0265,0,0,0,0,0,-0.0096,-0.0056,-0.0106,-0.0112,-0.0152,-0.0147,-0.0154,-0.0194,-0.0232,-0.0216,-0.027,-0.0278,-0.0334,-0.0331,-0.0336,-0.0302,-0.0373,-0.0373,-0.0374,-0.0279,-0.0272,-0.0265,0,0,0,0,0,0,-0.0016,-0.006,-0.0115,-0.0089,-0.012,-0.0156,-0.0137,-0.0188,-0.0221,-0.0222,-0.0282,-0.029,-0.0297,-0.0324,-0.0319,-0.0321,-0.0354,-0.0355,-0.0281,-0.0274,-0.0268,-0.0221,-0.0337,0,0,0,0,0,-0.0011,-0.0012,-0.0056,-0.0045,-0.0042,-0.0103,-0.0112,-0.014,-0.0172,-0.0187,-0.024,-0.0282,-0.0302,-0.0308,-0.0334,-0.033,-0.036,-0.0316,-0.031,-0.0304,-0.0273,-0.0337,-0.0333,-0.0375,-0.0375,-0.0375,0,0,0.0013,-0.0008,-0.0015,-0.0033,-0.0053,-0.0031,-0.0106,-0.009,-0.009,-0.0184,-0.0204,-0.0261,-0.0301,-0.0302,-0.0306,-0.0317,-0.0305,-0.0305,-0.0299,-0.027,-0.0337,-0.0332,-0.0329,-0.0375,-0.0375,-0.0375,0,0,0.0076,0.0059,0.0074,0.0076,0.0056,0.0034,0.004,-0.0007,-0.0035,-0.007,-0.0137,-0.0182,-0.0228,-0.025,-0.0263,-0.0242,-0.0277,-0.0254,-0.0173,-0.0236,-0.0233,-0.023,-0.024,-0.0239,-0.0245,-0.0244,-0.0244,0,0.0081,0.0107,0.0082,0.0118,0.013,0.0071,0.0108,0.0089,0.002,0.0006,-0.0054,-0.015,-0.0194,-0.0184,-0.0184,-0.0221,-0.0254,-0.019,-0.0226,-0.0224,-0.0222,-0.0234,-0.0234,-0.024,-0.024,-0.0241,-0.0241,0,0.0174,0.0179,0.0218,0.0222,0.0245,0.028,0.0262,0.0257,0.0195,0.0142,0.0101,0.0004,-0.0046,-0.0077,-0.0121,-0.0124,-0.0149,-0.0214,-0.0234,-0.0211,-0.0226,-0.0227,-0.0233,-0.0234,-0.0236,-0.0237,0,0,0.0194,0.0248,0.0253,0.0268,0.0304,0.0334,0.0382,0.0385,0.0409,0.0306,0.0301,0.0219,0.0139,0.0117,0.0036,-0.0024,-0.0053,-0.0106,-0.0112,-0.0096,-0.0158,-0.0144,-0.0145,-0.0138,-0.0139,-0.0139,-0.0162,0,0.0239,0.0306,0.0335,0.0408,0.0449,0.0463,0.0515,0.0526,0.049,0.0476,0.0376,0.0334,0.0225,0.0187,0.0116,-0.0012,-0.0057,-0.0037,-0.0198,-0.02,-0.0177,-0.0147,-0.0165,-0.0186,-0.0164,-0.0164,-0.0164,0,0.0309,0.0344,0.0411,0.049,0.0517,0.0557,0.0644,0.0682,0.0689,0.0659,0.0606,0.0517,0.0447,0.0317,0.0149,0.0162,0.0027,-0.0087,-0.0092,-0.0109,-0.0191,-0.0213,-0.0191,-0.0168,-0.0168,-0.0168,-0.0167,0,0.0323,0.04,0.0445,0.0478,0.0569,0.0609,0.0658,0.0714,0.0757,0.0759,0.0763,0.0669,0.0601,0.0428,0.0216,0.0172,0.002,-0.0074,-0.0176,-0.0175,-0.0232,-0.0235,-0.0194,-0.0194,-0.0194,-0.0194,-0.0194,0,0.0355,0.0399,0.0448,0.048,0.0575,0.0637,0.0725,0.078,0.0838,0.0903,0.0835,0.085,0.0611,0.0496,0.029,0.0086,0.0081,-0.013,-0.018,-0.0195,-0.0195,-0.0224,-0.0227,-0.0195,-0.0195,-0.0195,-0.0194,0,0.035,0.038,0.0469,0.0557,0.0573,0.0658,0.0758,0.0834,0.0889,0.0971,0.0974,0.0964,0.084,0.062,0.0361,0.0189,-0.0016,-0.0096,-0.0059,-0.0104,-0.0183,-0.0181,-0.0198,-0.0197,-0.0197,-0.0197,-0.0197,0,0.0355,0.0386,0.0499,0.0562,0.0588,0.068,0.0749,0.084,0.0923,0.1047,0.1096,0.1034,0.102,0.0712,0.0379,0.0079,0.0019,-0.0112,-0.0208,-0.0135,-0.0183,-0.0182,-0.018,-0.024,-0.024,-0.0241,-0.0241,0,0.038,0.0417,0.0466,0.0577,0.0658,0.0775,0.0864,0.095,0.1085,0.1176,0.132,0.133,0.1048,0.0755,0.0357,0.015,-0.006,-0.0123,-0.0076,-0.0227,-0.0176,-0.0223,-0.022,-0.0242,-0.0242,-0.0242,-0.0242,-0.0242,0.0398,0.0449,0.0506,0.062,0.0719,0.0877,0.0989,0.111,0.1285,0.1433,0.1419,0.1388,0.1003,0.047,0.0197,-0.0065,-0.008,-0.0222,-0.0222,-0.0222,-0.0213,-0.0164,-0.0223,-0.0223,-0.0223,-0.0222,-0.0222,0,0.0435,0.0465,0.0553,0.0708,0.0822,0.0876,0.1076,0.1218,0.1444,0.1482,0.154,0.1123,0.0785,0.0447,0.0039,-0.0217,-0.025,-0.0269,-0.0289,-0.0286,-0.0284,-0.028,-0.0307,-0.0308,-0.0308,-0.0308,0,0,0.0461,0.0521,0.0565,0.0757,0.0864,0.105,0.1195,0.1408,0.1498,0.1583,0.1483,0.1183,0.079,0.0407,0.0073,-0.0069,-0.0098,-0.0095,-0.0009,0.0012,0.0018,-0.0249,-0.0237,0,0,0,0,0]}],[{"header":{"parameterUnit":"m.s-1","parameterCategory":2,"la1":30.2991,"la2":30.254,"lo1":-89.0895,"lo2":-89.0444,"dy":0.0017,"dx":0.0017,"nx":28,"ny":28,"refTime":"2023-08-05T21:00:00:Z","depth":"4","parameterNumber":2,"parameterNumberName":"U-component_of_CURRENTS"},"data":[0,0,0,0,0,0,0,0,0,0,0,0,0,0,0,0,0,0,0,0,0,0,0,0,0,0,0,0,0,0,0,0,0,0,0,0,0,0,0,0,0,0,0,0,0,0,0,0,0,0,0,0,0,0,0,0,0,0,-0.0097,-0.0097,0,-0.0115,-0.0116,-0.0116,-0.021,-0.0212,-0.0214,-0.0215,-0.0459,-0.0464,-0.0468,0,0,0,0,0,0,0,0,0,0,0,0,0,-0.0145,-0.0144,-0.0097,-0.0097,-0.0097,-0.0115,-0.0116,-0.0116,-0.021,-0.0212,-0.0214,-0.0216,-0.0457,-0.0463,-0.0469,0,0,0,0,0,0,0,0,0,0,0,0,0,-0.0144,-0.0144,-0.0097,-0.0142,-0.0146,-0.0115,-0.0116,-0.0117,-0.0209,-0.0212,-0.0215,-0.0217,-0.0455,-0.0463,-0.047,-0.0461,0,0,-0.0492,-0.0495,0,0,0,0,0,0,0,0,-0.0144,-0.0143,-0.0135,-0.0139,-0.0143,-0.0159,-0.0221,-0.0241,-0.0209,-0.019,-0.0215,-0.0218,-0.0374,-0.0388,-0.039,-0.0473,-0.0483,-0.0493,-0.0497,-0.05,-0.0502,0,0,0,0,0,0,0,-0.0144,-0.0143,-0.011,-0.0135,-0.0139,-0.0161,-0.0164,-0.0225,-0.0275,-0.0192,-0.0198,-0.0191,-0.0379,-0.0382,-0.0397,-0.0487,-0.0492,-0.0499,-0.0503,-0.0506,-0.0714,-0.0716,0,0,0,0,0,0,-0.0128,-0.0142,-0.0109,-0.011,-0.0144,-0.0157,-0.0161,-0.0155,-0.027,-0.0287,-0.0188,-0.0195,-0.0369,-0.0388,-0.0406,-0.0543,-0.05,-0.0507,-0.0511,-0.0713,-0.0715,-0.0716,0,0,0,0,0,0,-0.0129,-0.0125,-0.0108,-0.0123,-0.0122,-0.0153,-0.0145,-0.0154,-0.0196,-0.0264,-0.0287,-0.0226,-0.0371,-0.0396,-0.0492,-0.0549,-0.051,-0.0517,-0.0712,-0.0714,-0.0715,-0.0729,0,0,0,0,0,0,-0.0131,-0.0125,-0.0136,-0.0121,-0.012,-0.0109,-0.0143,-0.0152,-0.0183,-0.0193,-0.0303,-0.0326,-0.0375,-0.0481,-0.0499,-0.0558,-0.0522,-0.071,-0.0713,-0.0715,-0.0727,-0.0731,-0.0735,0,0,0,0,0,-0.0132,-0.0134,-0.0136,-0.0133,-0.0126,-0.0108,-0.0111,-0.0145,-0.0182,-0.0196,-0.0278,-0.0324,-0.0509,-0.0487,-0.0509,-0.0571,-0.0709,-0.0712,-0.0715,-0.0726,-0.073,-0.0734,0,0,0,0,0,0,-0.0161,-0.0142,-0.0145,-0.0142,-0.0132,-0.0123,-0.0149,-0.0158,-0.0226,-0.0269,-0.0334,-0.0362,-0.0469,-0.0506,-0.0481,-0.0634,-0.0619,-0.0626,-0.062,-0.0625,-0.0629,-0.0613,-0.0528,0,0,0,0,0,-0.0164,-0.0164,-0.0142,-0.0139,-0.0146,-0.0151,-0.0158,-0.0177,-0.0217,-0.0251,-0.0327,-0.0415,-0.0485,-0.0545,-0.0611,-0.0692,-0.068,-0.0746,-0.075,-0.0753,-0.0753,-0.0774,-0.0779,-0.0725,-0.0725,-0.0725,0,0,-0.0167,-0.0161,-0.0159,-0.0146,-0.0157,-0.016,-0.0166,-0.0189,-0.0207,-0.027,-0.0365,-0.0434,-0.0506,-0.06,-0.0652,-0.065,-0.0754,-0.0756,-0.0758,-0.0757,-0.0777,-0.0782,-0.0787,-0.0727,-0.0726,-0.0726,0,0,-0.0174,-0.0181,-0.0189,-0.0191,-0.0203,-0.0195,-0.0205,-0.0227,-0.0264,-0.033,-0.0389,-0.0469,-0.0595,-0.064,-0.068,-0.0736,-0.0766,-0.0793,-0.0816,-0.0836,-0.084,-0.0844,-0.0795,-0.0795,-0.0804,-0.0804,-0.0804,0,-0.0185,-0.0187,-0.0187,-0.0205,-0.0211,-0.0214,-0.0227,-0.0246,-0.0299,-0.0338,-0.0376,-0.0535,-0.0599,-0.0681,-0.072,-0.0744,-0.0754,-0.0794,-0.084,-0.0843,-0.0847,-0.0796,-0.0795,-0.0805,-0.0805,-0.0805,-0.0804,0,-0.0189,-0.0212,-0.0225,-0.024,-0.0245,-0.0259,-0.027,-0.0315,-0.0366,-0.0386,-0.0494,-0.0564,-0.066,-0.0699,-0.0742,-0.0816,-0.081,-0.0832,-0.0823,-0.0853,-0.0797,-0.0796,-0.0806,-0.0806,-0.0806,-0.0805,0,0,-0.0172,-0.0214,-0.0233,-0.0244,-0.0273,-0.0266,-0.0319,-0.0343,-0.0386,-0.0461,-0.0514,-0.0632,-0.0685,-0.073,-0.0789,-0.082,-0.0842,-0.0866,-0.0866,-0.0806,-0.0863,-0.068,-0.066,-0.0905,-0.0905,-0.0906,-0.0799,0,-0.0182,-0.0214,-0.0239,-0.0266,-0.0274,-0.0311,-0.0345,-0.0383,-0.0435,-0.0493,-0.0555,-0.0633,-0.0689,-0.0757,-0.0799,-0.0834,-0.0849,-0.0866,-0.0853,-0.0851,-0.0677,-0.0656,-0.0909,-0.0798,-0.0797,-0.0797,-0.0797,0,-0.0192,-0.0203,-0.0245,-0.0274,-0.0288,-0.0325,-0.0387,-0.042,-0.0493,-0.0541,-0.0625,-0.0666,-0.0725,-0.0768,-0.0814,-0.0843,-0.0867,-0.0874,-0.0871,-0.0696,-0.0666,-0.0774,-0.0794,-0.0795,-0.0795,-0.0795,-0.0795,0,-0.0173,-0.0213,-0.0244,-0.0258,-0.0294,-0.0357,-0.0396,-0.0471,-0.049,-0.0588,-0.0598,-0.0682,-0.0702,-0.0766,-0.0762,-0.0829,-0.0764,-0.0841,-0.0677,-0.0661,-0.0855,-0.0853,-0.087,-0.087,-0.087,-0.0871,-0.0871,0,-0.0172,-0.0199,-0.0255,-0.0278,-0.0311,-0.0369,-0.0435,-0.0491,-0.0553,-0.0525,-0.0639,-0.0598,-0.0718,-0.0681,-0.0731,-0.0641,-0.0727,-0.0653,-0.0625,-0.0857,-0.0857,-0.0851,-0.085,-0.0866,-0.0867,-0.0868,-0.0869,0,-0.0174,-0.021,-0.0231,-0.0292,-0.0315,-0.0362,-0.0429,-0.0447,-0.0532,-0.0497,-0.0513,-0.0533,-0.0477,-0.0506,-0.0536,-0.0538,-0.0508,-0.0461,-0.0617,-0.0604,-0.041,-0.0412,-0.03,-0.0292,-0.0286,-0.0281,-0.0277,0,-0.0179,-0.0202,-0.0242,-0.0238,-0.029,-0.0352,-0.0366,-0.0447,-0.0422,-0.0398,-0.033,-0.0298,-0.0287,-0.0159,-0.024,-0.0243,-0.027,-0.0252,-0.0432,-0.0369,-0.0354,-0.0366,-0.0376,-0.0267,-0.0265,-0.0264,-0.0262,0,-0.0174,-0.0212,-0.022,-0.0212,-0.0236,-0.0221,-0.0246,-0.0226,-0.0244,-0.0271,-0.0135,-0.0111,-0.0009,-0.0032,-0.0001,-0.0031,-0.0274,-0.019,-0.0208,-0.0377,-0.0328,-0.0322,-0.0339,-0.0241,-0.0244,-0.0246,-0.0247,0,-0.0174,-0.0166,-0.0177,-0.0175,-0.0149,-0.0103,-0.0139,-0.0074,-0.0068,-0.0033,0.0051,0.007,0.0068,0.0091,0.0127,0.0129,0.0057,-0.0011,-0.004,-0.0065,-0.0044,0.0049,0.0303,0,0,0,0,0,-0.0158,-0.0138,-0.0119,-0.0094,-0.0056,-0.0055,-0.0022,-0.0045,-0.0032,0.0102,0.0062,0.0169,0.0212,0.0208,0.0242,0.0187,0.0032,0.0226,-0.0069,-0.0121,-0.0146,-0.0148,0,0,0,0,0,0,-0.0133,-0.0115,-0.0105,-0.0023,0.0008,0.0056,0.0064,0.0066,0.0131,0.0145,0.0167,0.0188,0.0214,0.02,0.0247,0.0247,0.0068,0.0237,0.0238,-0.0107,-0.013,-0.015,-0.016,0,0,0,0,0]},{"header":{"parameterUnit":"m.s-1","parameterCategory":2,"la1":30.2991,"la2":30.254,"lo1":-89.0895,"lo2":-89.0444,"dy":0.0017,"dx":0.0017,"nx":28,"ny":28,"refTime":"2023-08-05T21:00:00:Z","depth":"4","parameterNumber":3,"parameterNumberName":"V-component_of_CURRENTS"},"data":[0,0,0,0,0,0,0,0,0,0,0,0,0,0,0,0,0,0,0,0,0,0,0,0,0,0,0,0,0,0,0,0,0,0,0,0,0,0,0,0,0,0,0,0,0,0,0,0,0,0,0,0,0,0,0,0,0,0,-0.0155,-0.0156,0,-0.0232,-0.0233,-0.0234,-0.028,-0.028,-0.0279,-0.0279,-0.0321,-0.0322,-0.0323,0,0,0,0,0,0,0,0,0,0,0,0,0,-0.0053,-0.0055,-0.0155,-0.0156,-0.0156,-0.0232,-0.0233,-0.0234,-0.028,-0.028,-0.0279,-0.0279,-0.0321,-0.0322,-0.0323,0,0,0,0,0,0,0,0,0,0,0,0,0,-0.0112,-0.0055,-0.0155,-0.0186,-0.019,-0.0232,-0.0233,-0.0235,-0.028,-0.028,-0.0279,-0.0279,-0.032,-0.0322,-0.0324,-0.0335,0,0,-0.0329,-0.0329,0,0,0,0,0,0,0,0,-0.0109,-0.0116,-0.0181,-0.0184,-0.0188,-0.0244,-0.0212,-0.0266,-0.028,-0.0248,-0.0279,-0.0279,-0.029,-0.0295,-0.0313,-0.0337,-0.0338,-0.0329,-0.033,-0.0331,-0.0331,0,0,0,0,0,0,0,-0.0105,-0.0113,-0.0188,-0.0182,-0.0186,-0.0198,-0.0207,-0.0223,-0.027,-0.0251,-0.0254,-0.0258,-0.0293,-0.0311,-0.0314,-0.0339,-0.0329,-0.033,-0.0331,-0.0332,-0.0431,-0.0433,0,0,0,0,0,0,-0.0091,-0.011,-0.0185,-0.019,-0.0145,-0.02,-0.021,-0.0228,-0.027,-0.0276,-0.0258,-0.026,-0.0309,-0.0312,-0.0316,-0.0342,-0.0331,-0.0332,-0.0333,-0.043,-0.0432,-0.0433,0,0,0,0,0,0,-0.0089,-0.0097,-0.0182,-0.0149,-0.016,-0.0202,-0.0222,-0.023,-0.0257,-0.0276,-0.0282,-0.0279,-0.0309,-0.0313,-0.035,-0.0344,-0.0333,-0.0334,-0.0428,-0.043,-0.0433,-0.0388,0,0,0,0,0,0,-0.0086,-0.0096,-0.012,-0.0148,-0.0161,-0.0222,-0.0222,-0.0231,-0.0259,-0.0262,-0.0295,-0.0299,-0.0309,-0.0348,-0.0352,-0.0346,-0.0336,-0.0426,-0.0429,-0.0432,-0.0387,-0.0389,-0.039,0,0,0,0,0,-0.0082,-0.013,-0.0121,-0.0131,-0.0188,-0.0223,-0.0232,-0.0262,-0.026,-0.0284,-0.0306,-0.0298,-0.037,-0.0351,-0.0355,-0.0349,-0.0424,-0.0428,-0.0432,-0.0387,-0.0388,-0.039,0,0,0,0,0,0,-0.0107,-0.0139,-0.0131,-0.0187,-0.02,-0.023,-0.0264,-0.0266,-0.0303,-0.0306,-0.0317,-0.0324,-0.0355,-0.0371,-0.0349,-0.0394,-0.0397,-0.0401,-0.0361,-0.0363,-0.0364,-0.036,-0.0337,0,0,0,0,0,-0.0116,-0.0154,-0.017,-0.021,-0.022,-0.0235,-0.0256,-0.0265,-0.0292,-0.0309,-0.0327,-0.0352,-0.0374,-0.0383,-0.0413,-0.0431,-0.0436,-0.0436,-0.0437,-0.0437,-0.0442,-0.0451,-0.0451,-0.0445,-0.0445,-0.0445,0,0,-0.0137,-0.0156,-0.018,-0.0216,-0.0231,-0.0265,-0.025,-0.0283,-0.0309,-0.0306,-0.0357,-0.0359,-0.0385,-0.0411,-0.0425,-0.0419,-0.0442,-0.0442,-0.0441,-0.0446,-0.0454,-0.0454,-0.0454,-0.0448,-0.0448,-0.0447,0,0,-0.0183,-0.0209,-0.0246,-0.0265,-0.0283,-0.0297,-0.0304,-0.0327,-0.0341,-0.0368,-0.0377,-0.0385,-0.0417,-0.0434,-0.0444,-0.0476,-0.0453,-0.0475,-0.0462,-0.0469,-0.0469,-0.0468,-0.0459,-0.0458,-0.0466,-0.0466,-0.0466,0,-0.0203,-0.0246,-0.0262,-0.0295,-0.0317,-0.0312,-0.0346,-0.0367,-0.0397,-0.04,-0.0385,-0.0419,-0.0432,-0.0458,-0.0457,-0.0475,-0.0462,-0.0442,-0.0466,-0.0466,-0.0466,-0.0457,-0.0456,-0.0464,-0.0464,-0.0465,-0.0465,0,-0.0255,-0.03,-0.0326,-0.0364,-0.0394,-0.0424,-0.044,-0.0462,-0.0454,-0.0451,-0.0461,-0.0464,-0.047,-0.0473,-0.0463,-0.0471,-0.0455,-0.0466,-0.0448,-0.0463,-0.0454,-0.0454,-0.0462,-0.0462,-0.0463,-0.0463,0,0,-0.0287,-0.0348,-0.0364,-0.0382,-0.0428,-0.0454,-0.0501,-0.0525,-0.0538,-0.053,-0.0533,-0.0538,-0.0489,-0.05,-0.0481,-0.0478,-0.0452,-0.0452,-0.0453,-0.0418,-0.0439,-0.045,-0.0452,-0.0444,-0.0444,-0.0445,-0.0425,0,-0.0318,-0.0381,-0.0414,-0.0484,-0.0512,-0.0534,-0.0575,-0.0594,-0.0589,-0.0594,-0.0563,-0.0551,-0.0514,-0.0477,-0.047,-0.0467,-0.0453,-0.0456,-0.0454,-0.0454,-0.0441,-0.0453,-0.0446,-0.0425,-0.0425,-0.0425,-0.0425,0,-0.0353,-0.0392,-0.0455,-0.0516,-0.0533,-0.0575,-0.0619,-0.0646,-0.0652,-0.0629,-0.0595,-0.0562,-0.0536,-0.05,-0.0481,-0.0471,-0.0443,-0.0441,-0.0441,-0.0469,-0.0467,-0.0416,-0.0425,-0.0425,-0.0425,-0.0425,-0.0425,0,-0.0337,-0.0424,-0.047,-0.0495,-0.0566,-0.0595,-0.062,-0.0646,-0.0654,-0.0626,-0.0602,-0.0575,-0.0537,-0.0515,-0.0479,-0.0461,-0.0474,-0.046,-0.0451,-0.0451,-0.0461,-0.0462,-0.0451,-0.0451,-0.0451,-0.0451,-0.0451,0,-0.0344,-0.0394,-0.0464,-0.0491,-0.0545,-0.0581,-0.0616,-0.0631,-0.0635,-0.0616,-0.0588,-0.0556,-0.0532,-0.0526,-0.0495,-0.0477,-0.048,-0.0453,-0.0452,-0.0444,-0.0443,-0.046,-0.0461,-0.045,-0.045,-0.0451,-0.0451,0,-0.0323,-0.037,-0.0433,-0.0512,-0.0536,-0.0565,-0.061,-0.0623,-0.0613,-0.0587,-0.056,-0.0542,-0.0512,-0.0523,-0.0505,-0.0495,-0.0487,-0.048,-0.0471,-0.047,-0.0447,-0.0446,-0.0454,-0.0454,-0.0454,-0.0455,-0.0455,0,-0.0314,-0.034,-0.044,-0.0474,-0.0513,-0.0554,-0.0579,-0.0598,-0.0579,-0.0559,-0.0527,-0.0518,-0.0493,-0.049,-0.0505,-0.0496,-0.0489,-0.0486,-0.046,-0.0451,-0.045,-0.0449,-0.0448,-0.0455,-0.0455,-0.0456,-0.0456,0,-0.0305,-0.0347,-0.04,-0.0453,-0.0499,-0.0545,-0.0552,-0.053,-0.0515,-0.0529,-0.0462,-0.0457,-0.0455,-0.0459,-0.0482,-0.0466,-0.0494,-0.0488,-0.0486,-0.0462,-0.0453,-0.0451,-0.045,-0.0457,-0.0457,-0.0456,-0.0456,0,-0.0307,-0.0342,-0.04,-0.0436,-0.0485,-0.0495,-0.0517,-0.0485,-0.0477,-0.0425,-0.0405,-0.0408,-0.042,-0.0443,-0.0452,-0.0465,-0.0443,-0.0426,-0.0426,-0.0426,-0.0435,-0.042,-0.0415,0,0,0,0,0,-0.031,-0.0337,-0.0374,-0.0416,-0.0444,-0.0463,-0.0482,-0.0488,-0.0455,-0.0394,-0.039,-0.0371,-0.0385,-0.0405,-0.0411,-0.0462,-0.0464,-0.0472,-0.0448,-0.0463,-0.0461,-0.048,0,0,0,0,0,0,-0.0322,-0.0364,-0.0369,-0.0362,-0.0364,-0.0399,-0.0404,-0.04,-0.0352,-0.0327,-0.0335,-0.035,-0.0375,-0.036,-0.0396,-0.0408,-0.0389,-0.049,-0.049,-0.0463,-0.0462,-0.0461,-0.048,0,0,0,0,0]}]]